全球卫星定位系统 GPS 76星 (NAVSTAR 76 (USA 266))

导读 | 星芒AI

NAVSTAR 76(USA 266)是美国空军发射的一颗GPS III卫星,于2018年12月23日由SpaceX的猎鹰九号火箭送入轨道。该卫星属于新一代GPS III系列,提供更精确的定位、导航和授时服务,并增强了抗干扰能力。作为GPS星座的一部分,NAVSTAR 76提升了全球导航系统的性能和可靠性,支持民用与军用用户。

基本信息
目录编号:
41328
目录名称:
NAVSTAR 76 (USA 266)
国际标识:
2016-007A
轨道中心:
EARTH
卫星名称:
GPS 76星
卫星全名:
全球卫星定位系统 GPS 76星 (NAVSTAR 76 (USA 266))
卫星状态:
在轨 (已飞行3560 天)
发射日期:
2016-02-05 UTC
国别 :
美国 (US)
星等 :
--
轨道信息
数据来源 国际轨道数据 AOE轨道数据
星历时间 2025-11-04T20:02:09+0800
6小时前
查看轨道信息
2025-11-04T06:00:00+0800
20小时前
查看轨道信息
半长轴 26560.437km 26560.384km
偏心率 0.0090354 0.0090286
轨道倾角 55.383° 55.383°
近地点辐角 242.800° 242.818°
升交点赤经 98.374° 98.397°
平近点角 116.272° 53.987°
近地点 19942.317km 19942.445km
远地点 20422.287km 20422.053km
周期 717.980分钟 717.978分钟
每日圈数 2.005626 2.005632
详细信息
平衡模式:
三轴稳定
覆盖范围:
全球
运营商:
美国太空军
运营商所在国:
美国
制造商(研发单位):
波音公司
制造商所在国:
美国
使用方式:
暂无
工作目标:
提供军用及民用全球定位与导航服务
预期寿命:
12年
卫星简介
全球定位系统(英语:Global Positioning System,通常简称GPS),又称全球卫星定位系统,是美国国防部研制,美国太空军运营与维护的中地球轨道卫星导航系统。它可以为地球表面约98%的地区提供准确的定位、测速和高精度的标准时间。全球定位系统可满足位于全球地面任何一处或近地空间的军事用户连续且精确地确定三维位置、三维运动和时间的需求。该系统包括太空中的31颗GPS人造卫星.该卫星仍在工作。
2D轨道图
3D轨道图
轨道高度分析图
轨道倾角分析图
轨道综合分析图
查看轨道综合分析图